SCP
0 0 0 0 0 0 0 0 0 0 0 1 1 1 1 1 1 1 1 1 2 3 5 7 7 7 6 6 6 6 5 5 5 4 4 3 3 4 4 4 4 4 3 3 3 2 2 2 2
0 0 0 0 0 0 0 0 0 0 1 1 1 1 1 1 1 1 1 2 2 4 5 6 7 7 7 6 6 5 5 5 4 4 4 3 3 3 3 4 4 4 4 3 3 2 2 2 2
0 0 0 0 0 0 0 0 0 1 1 2 2 1 1 1 1 1 1 2 3 4 5 6 8 9 8 6 5 5 4 4 4 4 3 3 3 2 2 3 3 4 4 3 3 2 2 2 2
0 0 0 0 1 1 0 0 0 1 1 1 1 1 1 1 1 1 2 3 4 4 4 6 9 10 8 6 5 4 4 3 3 3 3 3 2 2 2 2 3 3 3 3 3 2 2 2 2
0 0 0 0 1 1 0 0 0 1 1 1 1 1 2 1 1 2 2 3 3 4 4 6 9 10 9 7 5 4 4 4 3 3 2 2 2 2 2 2 2 2 2 2 2 2 2 2 2
0 0 0 0 1 1 0 0 0 1 1 1 1 2 2 1 1 2 2 3 3 3 4 6 8 9 9 8 6 5 5 5 4 3 3 2 2 2 2 2 2 2 2 2 2 2 2 2 2
0 0 0 0 1 1 0 1 1 1 1 1 1 1 1 1 1 2 3 3 3 3 4 5 6 7 8 7 7 6 6 5 4 4 4 4 3 2 2 2 2 2 2 2 3 3 2 2 2
0 0 0 0 0 0 0 1 1 1 1 1 1 1 1 1 2 3 4 4 4 4 4 4 4 5 5 6 6 6 6 5 5 6 8 8 5 3 2 2 2 2 2 2 2 3 2 1 1
0 0 0 0 0 0 0 1 1 1 1 1 1 1 1 2 3 4 5 5 5 5 4 4 3 3 3 4 4 6 6 5 6 8 12 11 7 4 2 2 2 2 2 1 2 2 2 2 2
0 0 0 0 0 0 0 1 1 1 1 1 2 2 3 4 5 5 5 5 6 5 5 4 3 3 3 3 4 4 5 4 5 8 11 10 7 5 4 3 2 2 2 1 1 1 2 2 3
0 0 0 0 0 0 1 1 1 1 2 2 3 4 4 5 5 5 5 6 6 6 5 5 4 3 3 3 3 3 3 3 3 6 8 7 6 5 5 4 3 2 2 2 1 1 2 3 3
0 0 0 0 0 0 1 2 2 2 2 3 4 5 5 4 5 5 6 6 6 6 5 5 4 3 2 3 3 2 2 2 2 4 6 6 5 5 5 4 3 3 2 2 2 2 2 2 2
0 0 0 0 0 1 1 2 3 3 3 4 5 5 4 4 4 5 6 6 6 6 6 6 5 3 2 2 2 2 2 2 2 4 5 5 5 4 4 4 3 3 2 2 2 2 1 1 1
0 0 0 0 0 1 2 2 3 3 3 4 4 4 3 3 3 4 5 6 7 7 8 8 6 4 2 2 2 3 2 2 2 3 4 4 4 4 4 3 3 2 2 2 2 2 1 1 1
0 0 0 0 0 1 1 2 3 3 3 3 3 2 2 2 2 3 4 5 7 8 9 8 6 4 2 2 3 3 3 3 3 3 3 3 3 3 3 3 2 2 2 2 2 1 1 1 1
0 0 0 0 0 0 1 1 2 2 2 2 2 2 2 2 2 2 3 4 6 8 8 7 5 3 2 2 2 3 3 3 3 3 3 3 3 3 2 2 2 2 2 2 2 1 1 1 1
0 0 0 0 0 0 0 1 1 2 2 2 2 2 2 2 2 2 2 2 4 5 6 5 4 3 2 2 2 2 2 2 3 3 3 3 2 2 2 2 1 2 2 2 2 1 1 1 1
0 0 0 0 0 0 0 1 1 1 2 2 2 2 2 2 2 2 2 2 2 3 4 4 4 3 3 2 2 2 2 2 2 2 2 2 2 2 2 2 2 2 2 2 2 2 1 1 1
0 0 0 0 0 0 0 1 1 1 1 2 2 2 3 3 2 3 3 3 3 3 3 4 4 3 2 2 2 1 2 2 2 2 1 2 2 3 3 3 3 3 2 2 2 2 2 2 2
0 0 0 0 0 0 0 1 1 1 1 1 2 3 4 3 3 3 4 4 3 3 2 2 2 2 2 2 1 1 1 2 2 2 1 1 2 4 5 4 4 4 3 3 2 3 3 2 2
0 0 0 0 0 0 0 0 1 1 1 1 2 3 4 4 3 2 3 3 3 3 2 1 1 2 2 2 1 1 1 1 2 2 1 1 1 2 4 5 5 4 4 4 3 3 3 3 2
0 0 0 0 0 0 0 0 0 1 1 1 2 3 3 3 2 2 2 2 2 2 1 1 1 2 2 1 1 0 1 1 1 1 1 1 1 1 3 4 4 4 4 4 3 3 3 3 3
0 0 0 0 0 0 0 0 0 1 1 1 2 2 3 3 2 2 1 1 1 1 1 1 1 1 1 1 0 0 1 1 1 1 1 1 1 1 2 3 4 4 3 3 2 2 3 3 3
0 0 0 0 0 0 0 0 0 0 1 1 1 2 2 2 2 2 1 1 1 1 1 1 1 1 1 1 0 1 1 1 1 1 1 1 1 1 2 2 3 2 2 2 1 1 1 2 1
0 0 0 0 0 0 0 0 1 1 1 1 1 1 1 2 2 2 1 1 1 1 1 1 1 1 1 1 1 0 0 0 1 0 0 0 0 1 1 1 1 1 1 1 0 0 0 1 0
0 0 0 0 0 0 0 1 1 1 1 1 1 1 1 1 1 1 1 0 1 1 1 2 2 2 1 1 1 0 0 0 0 0 0 0 0 1 1 1 1 0 0 0 0 0 0 0 0
0 0 0 0 0 0 1 2 2 1 0 0 0 0 0 0 0 0 0 0 0 1 1 2 2 2 2 1 1 1 0 0 0 0 0 0 0 0 1 1 1 0 0 0 0 0 0 0 0
0 0 0 0 0 0 1 2 2 1 0 0 0 0 0 0 0 0 0 0 0 0 1 2 2 2 2 2 1 1 0 0 0 0 0 0 0 0 0 1 0 0 0 0 0 0 0 0 0
0 0 0 0 0 1 1 2 2 1 0 0 0 0 0 0 0 0 0 0 0 0 0 1 2 3 3 2 1 1 0 0 0 0 0 0 0 0 0 0 0 0 0 0 0 0 0 0 0
0 0 0 0 0 1 1 2 1 1 0 0 0 0 0 0 0 0 0 0 0 0 0 1 2 4 3 2 1 1 0 0 0 0 0 0 0 0 0 0 0 0 0 0 0 0 0 0 0
Wind_Speed
2 3 2 2 5 5 2 4 3 3 2 1 2 2 4 3 2 2 0 6 8 10 10 13 15 15 15 15 15 15 15 15 15 14 14 14 14 14 13 12 12 11 10 10 9 8 8 7 7
2 2 2 4 5 3 4 3 3 3 1 1 2 2 3 1 1 2 2 5 9 10 10 11 15 15 14 15 15 14 14 14 14 14 14 14 13 13 12 12 11 10 10 9 9 8 8 7 7
2 1 4 5 3 3 3 3 2 3 2 1 1 2 1 0 0 2 3 8 9 9 8 10 15 15 14 14 14 14 13 13 13 13 13 13 12 12 11 11 11 10 9 9 9 8 8 7 7
2 4 5 5 0 3 4 4 3 3 4 3 2 2 1 2 0 3 8 10 9 7 7 9 14 14 14 14 13 14 13 12 12 12 12 12 11 11 11 10 10 9 9 9 8 8 7 7 7
4 4 5 3 3 4 4 4 1 1 2 2 2 1 2 4 4 6 8 9 9 7 6 8 13 13 13 13 13 12 12 12 11 11 11 10 10 10 10 10 10 9 9 9 8 8 7 7 7
4 5 4 1 3 4 3 2 1 2 1 1 2 1 1 3 4 5 7 7 7 7 5 6 12 12 12 12 12 11 11 11 10 10 10 10 10 9 10 9 9 8 8 8 8 8 8 7 7
4 4 2 1 2 3 2 1 1 1 2 2 1 2 1 2 3 5 6 6 5 5 5 4 5 7 10 10 10 10 10 10 10 9 9 9 9 9 9 9 8 8 8 8 8 8 8 7 7
4 4 1 1 2 3 2 2 1 1 1 1 2 2 2 1 5 7 7 6 4 4 3 3 3 3 4 5 8 9 9 9 9 9 9 8 8 8 8 7 8 8 8 8 8 7 8 7 7
3 5 1 3 3 3 1 1 2 1 1 2 3 1 1 7 8 8 7 5 3 3 2 2 2 2 2 3 5 7 8 8 8 7 8 7 4 3 4 6 8 9 9 9 9 8 8 7 7
4 3 5 4 3 1 1 0 0 2 3 3 5 6 6 9 8 7 5 4 3 3 2 3 3 3 2 3 2 2 3 3 3 2 3 3 2 2 3 4 7 8 8 8 9 8 7 6 3
3 4 3 3 2 2 1 1 2 3 1 1 1 2 5 6 6 5 5 4 4 3 2 2 3 3 3 2 1 1 1 1 2 2 2 2 2 2 2 1 3 4 5 4 4 4 3 3 3
2 3 3 3 0 1 1 1 3 3 2 1 4 5 5 6 4 4 4 3 2 2 2 2 2 3 3 2 1 1 1 1 2 2 3 2 2 3 2 2 2 2 2 2 2 2 3 4 4
2 2 1 1 0 1 3 3 3 4 4 6 8 7 5 4 3 2 2 1 2 1 1 1 2 2 2 2 2 2 2 2 2 2 2 3 3 3 3 2 2 2 2 2 2 3 3 4 4
2 1 2 2 1 2 6 5 5 3 4 7 8 6 5 4 2 2 2 1 1 2 2 1 1 1 2 2 2 2 2 2 2 2 3 3 3 2 3 2 2 2 2 3 3 3 3 4 4
1 1 4 3 2 1 5 6 5 3 4 6 6 5 5 4 4 2 0 0 1 1 1 1 2 1 1 2 2 2 2 2 2 2 2 3 3 3 2 2 2 3 3 3 3 3 3 3 4
3 3 3 4 3 2 6 1 3 2 5 5 5 5 5 4 4 3 2 1 1 1 0 1 1 1 1 0 1 1 1 1 1 1 2 3 3 3 2 2 2 2 2 2 2 2 3 3 3
5 3 2 5 4 3 5 1 2 1 4 4 4 4 4 5 6 5 4 3 2 2 1 1 1 1 1 1 0 0 0 0 1 1 1 2 2 2 2 2 2 2 1 1 2 2 2 3 3
2 2 2 3 3 6 5 1 2 2 3 3 3 3 4 4 5 5 5 4 3 3 2 2 2 1 1 1 1 1 1 1 1 1 1 1 1 2 2 2 2 1 1 1 1 2 2 2 2
2 1 2 2 1 4 3 2 3 3 4 4 4 3 3 3 4 5 5 4 3 3 2 2 2 2 1 1 0 0 1 1 1 1 2 1 1 2 2 2 2 1 2 2 2 2 2 2 1
2 1 1 1 2 3 3 3 2 3 3 3 2 2 3 4 5 5 5 4 4 3 3 2 2 2 1 1 0 0 0 1 1 1 2 2 2 2 2 2 2 2 1 1 1 2 1 1 1
0 2 3 2 2 3 3 3 3 3 3 4 4 3 3 3 3 4 4 4 4 3 2 2 2 2 1 1 1 2 2 1 1 1 2 2 2 2 2 2 2 2 2 2 2 2 2 2 1
3 3 2 3 2 1 1 1 3 3 4 5 5 4 4 3 3 3 4 4 4 3 3 2 2 1 1 1 2 1 1 2 3 2 2 2 2 3 2 2 1 1 1 2 2 2 2 2 2
2 2 2 2 3 2 3 1 4 3 4 5 5 5 5 4 3 3 4 4 4 3 3 3 2 2 2 1 0 0 1 2 2 2 2 2 2 2 2 2 2 2 2 2 2 2 2 2 2
2 4 5 5 5 2 2 1 4 2 4 4 4 4 4 5 4 3 3 3 3 4 3 3 3 3 2 2 1 1 2 2 2 3 2 2 2 2 2 2 2 2 2 2 2 3 3 3 3
7 6 5 6 5 3 1 1 4 3 2 2 3 4 4 4 3 3 3 4 4 4 4 3 3 3 3 3 3 2 2 2 3 3 3 2 2 2 3 2 2 2 2 2 2 3 3 3 4
2 5 4 2 3 4 3 2 4 1 2 3 3 3 4 4 4 3 3 3 4 4 4 4 3 4 4 3 4 3 2 2 2 3 3 3 2 3 2 2 2 2 2 2 1 2 3 3 4
2 2 2 5 1 1 4 4 4 2 5 5 5 5 5 6 5 4 4 4 4 4 4 4 4 5 4 4 4 3 3 2 3 3 2 2 2 2 2 2 2 2 1 1 1 1 2 2 3
3 4 4 4 2 3 5 3 3 4 5 5 5 4 4 5 5 6 5 5 4 4 4 4 4 5 5 4 3 3 3 3 3 2 2 2 2 2 2 2 2 1 1 1 0 1 2 2 2
4 4 5 3 3 2 3 6 2 2 3 4 5 4 4 4 4 5 5 5 5 4 4 4 4 4 5 4 4 3 3 3 2 2 3 2 2 2 2 2 2 2 1 1 1 1 2 2 3
2 2 4 2 1 2 2 7 2 1 3 3 4 4 4 4 4 4 5 5 5 6 5 5 4 4 4 4 4 4 3 3 3 3 3 3 3 3 2 2 2 2 1 1 1 2 2 2 3
Wind_Direction
123 105 100 69 55 48 322 283 266 302 310 331 56 103 126 129 161 218 240 142 135 145 154 158 159 157 153 149 146 143 142 140 138 139 140 143 145 147 150 152 155 158 162 163 164 165 164 162 162
128 124 66 61 76 42 304 280 292 286 239 344 43 72 82 80 89 113 124 145 139 144 149 157 160 160 158 154 151 149 148 146 145 146 147 149 151 153 156 159 161 164 167 168 169 172 169 168 169
153 105 83 72 91 173 264 278 269 317 345 9 41 40 65 30 122 161 157 144 134 139 146 160 161 161 159 158 157 156 155 154 153 154 154 156 158 160 163 165 168 171 173 175 176 178 178 177 177
111 54 56 67 35 236 231 264 296 333 350 13 76 39 19 12 261 143 135 137 133 136 145 161 161 162 161 162 163 162 162 163 162 161 162 163 166 168 171 174 177 179 182 184 185 185 185 187 187
65 76 58 27 298 274 258 264 279 40 338 359 77 90 337 5 59 109 129 135 139 144 151 162 162 163 164 166 167 166 167 168 169 168 170 172 175 177 180 183 186 188 190 192 194 193 195 198 198
58 68 75 336 303 289 275 271 7 51 354 355 78 108 319 26 72 114 124 128 135 144 148 161 168 168 168 169 169 168 170 171 173 174 177 181 184 187 190 192 195 197 199 202 203 201 204 211 211
100 93 131 228 288 291 274 336 63 23 355 310 131 110 324 19 67 105 106 104 113 131 140 151 167 174 175 173 173 174 174 176 178 179 182 189 193 196 198 200 199 201 205 211 212 208 211 216 219
122 100 81 284 256 269 281 334 6 60 293 41 85 123 239 231 107 98 91 90 97 111 139 153 153 160 170 179 183 184 184 185 184 184 185 190 200 204 205 205 211 212 214 219 223 222 221 221 222
89 75 218 231 217 260 305 350 340 25 81 43 47 85 142 118 113 98 88 80 91 121 142 152 156 161 164 179 192 190 192 192 189 189 191 190 194 202 210 216 220 224 225 227 229 229 229 226 226
91 129 230 224 204 215 336 354 276 37 35 21 26 30 91 113 120 120 121 132 144 164 175 170 173 172 172 192 183 185 192 187 185 180 189 185 177 197 210 227 231 234 232 233 234 232 232 230 223
147 193 236 273 217 170 99 33 59 108 12 298 161 120 112 121 127 138 151 156 174 179 182 194 189 177 180 189 176 177 180 175 190 191 191 184 178 197 217 229 245 246 243 240 241 237 227 219 217
174 250 221 260 159 112 155 100 59 53 307 20 115 123 114 128 140 154 163 178 174 158 191 199 186 185 190 183 181 175 182 189 203 207 204 195 202 203 207 214 232 233 236 236 233 233 230 226 224
194 268 285 252 13 109 85 65 83 25 24 72 83 81 93 111 121 134 148 157 139 159 202 199 182 185 188 182 196 189 198 203 215 223 218 206 211 219 214 214 222 237 236 230 229 232 235 237 239
221 237 301 330 41 82 85 48 53 6 36 70 75 73 69 69 76 67 54 59 177 194 210 199 175 178 176 190 201 202 200 198 198 220 229 217 214 218 212 212 218 225 227 232 227 228 236 242 243
89 16 347 358 15 77 93 38 16 347 71 73 65 60 58 47 49 47 31 160 243 224 199 200 181 153 180 208 215 214 203 193 203 214 233 228 213 208 210 217 227 230 229 230 227 228 230 241 248
45 50 359 325 17 38 94 58 339 24 88 71 58 52 55 36 29 16 22 50 43 66 75 171 190 146 135 139 224 236 194 191 208 201 217 223 210 203 207 224 246 246 228 222 227 224 226 239 249
26 21 320 323 7 55 85 130 326 24 87 71 53 46 41 24 17 10 16 35 49 77 95 71 65 98 110 67 13 326 297 201 215 215 226 225 207 199 194 217 241 245 226 226 238 225 220 232 250
288 312 315 316 356 67 80 70 354 19 69 64 50 43 32 22 2 357 14 29 45 56 62 66 62 68 100 110 63 17 2 326 296 258 250 245 224 213 207 225 238 221 219 236 234 241 231 232 251
177 184 274 284 349 72 85 58 6 25 48 43 34 28 19 4 1 10 14 22 33 42 44 37 53 45 58 63 87 309 302 304 303 284 275 266 254 232 215 233 239 207 211 235 226 222 241 253 240
142 135 278 329 41 100 91 46 2 36 42 38 39 15 9 9 13 13 12 14 16 19 21 19 18 31 29 8 253 224 243 279 267 282 297 291 268 253 226 223 234 218 212 230 218 194 208 244 190
262 195 219 205 27 58 92 9 350 11 35 31 30 16 12 15 2 351 359 359 359 356 353 349 353 4 16 23 36 16 6 343 326 303 291 287 276 267 246 232 228 225 207 234 239 208 196 221 230
283 269 199 152 111 312 89 260 308 340 5 9 2 359 352 346 350 348 350 350 343 332 345 355 348 357 356 44 63 52 337 295 278 272 269 281 277 272 258 235 225 223 216 231 248 226 218 205 223
266 1 81 101 125 68 23 110 297 352 350 337 342 347 346 342 348 345 340 330 332 338 351 355 359 354 342 4 55 15 287 280 291 294 294 294 280 269 264 238 223 220 225 233 237 221 210 209 217
24 44 48 50 69 44 310 136 293 310 300 320 337 343 343 343 347 349 345 349 351 348 356 2 358 343 336 333 312 266 268 269 294 298 295 293 295 286 277 256 235 229 234 237 235 227 222 219 220
42 60 24 6 13 270 305 137 258 288 303 297 311 323 325 335 346 348 347 347 345 342 344 340 343 323 313 313 303 283 270 267 260 269 266 267 279 281 269 265 247 238 241 247 240 231 231 225 226
29 113 140 206 242 287 333 263 255 300 344 348 342 330 334 335 337 341 337 335 335 337 335 326 326 316 309 308 304 301 299 286 273 263 262 261 259 260 259 260 250 245 241 251 247 247 245 235 240
69 69 148 136 94 312 296 298 302 3 1 358 358 354 345 338 335 336 337 334 327 322 318 314 312 312 303 299 302 309 305 298 286 276 265 267 266 266 252 255 261 258 243 242 244 268 272 259 256
85 124 75 83 77 308 305 296 283 312 320 335 338 332 332 337 339 338 334 325 313 302 302 309 309 305 298 294 292 300 299 296 293 295 292 288 279 277 275 267 270 269 263 253 264 284 288 297 288
22 48 76 91 132 157 292 282 247 256 287 297 303 313 317 321 325 325 325 320 312 312 310 304 305 308 307 305 303 305 302 304 305 298 289 284 286 289 275 269 269 270 274 264 249 276 294 305 303
92 107 123 118 273 183 203 271 298 335 307 296 304 315 315 312 313 317 317 321 325 323 316 308 303 299 298 302 307 301 300 304 303 298 296 295 290 286 277 276 271 272 274 265 254 281 302 296 299